Simultaneous Nadir Overpasses (SNOs) Predictions

Prediction of SNOs between FY3D and METOP-C Satellite Orbit:

Table of predicted SNOs for the next 14.0 days since TLE Epoch: 10/10/2020
Index Date (FY3D) Time (FY3D) Lat,Lon (FY3D) SZA (FY3D ) Date (METOP-C) Time (METOP-C) Lat,Lon (METOP-C) SZA (METOP-C ) Distance(km) Time Diff (sec)
1 10/18/2020 00:12:29 73.77, 168.15 83.45 10/18/2020 00:13:35 73.73, 170.97 83.36 87.81 66
2 10/18/2020 01:03:12 -73.73, -24.45 96.58 10/18/2020 01:04:19 -73.68, -21.84 96.68 81.84 67
3 10/18/2020 01:53:53 73.52, 143.37 83.21 10/18/2020 01:55:02 73.47, 145.01 83.13 52.18 69
4 10/18/2020 02:44:35 -73.43, -49.13 96.87 10/18/2020 02:45:46 -73.41, -47.79 96.92 42.44 71
5 10/18/2020 03:35:16 73.21, 118.68 82.92 10/18/2020 03:36:29 73.20, 119.07 82.89 12.61 73
6 10/18/2020 04:25:59 -73.18, -73.93 97.11 10/18/2020 04:27:13 -73.14, -73.73 97.15 7.90 74
7 10/18/2020 05:16:43 73.11, 93.53 82.84 10/18/2020 05:17:52 73.13, 93.58 82.85 2.41 69
8 10/18/2020 06:07:27 -73.13, -99.19 97.13 10/18/2020 06:08:35 -73.13, -99.11 97.14 2.77 68
9 10/18/2020 06:58:12 73.11, 68.17 82.86 10/18/2020 06:59:14 73.11, 68.20 82.86 1.06 62
10 10/18/2020 07:48:56 -73.13,-124.56 97.11 10/18/2020 07:49:57 -73.11,-124.48 97.14 3.24 61
11 10/18/2020 08:39:41 73.11, 42.80 82.89 10/18/2020 08:40:36 73.09, 42.82 82.87 1.79 55
12 10/18/2020 09:30:24 -73.08,-149.81 97.14 10/18/2020 09:31:19 -73.09,-149.86 97.13 2.22 55
13 10/18/2020 10:21:10 73.11, 17.43 82.91 10/18/2020 10:21:58 73.08, 17.44 82.87 3.47 48
14 10/18/2020 11:11:53 -73.07,-175.18 97.12 10/18/2020 11:12:41 -73.07,-175.24 97.12 1.97 48
15 10/18/2020 12:02:39 73.10, -7.93 82.93 10/18/2020 12:03:19 73.11, -7.83 82.93 3.47 40
16 10/18/2020 12:53:22 -73.07, 159.45 97.09 10/18/2020 12:54:03 -73.06, 159.38 97.11 3.07 41
17 10/18/2020 13:44:08 73.10, -33.30 82.96 10/18/2020 13:44:41 73.09, -33.21 82.94 3.40 33
18 10/18/2020 14:34:51 -73.07, 134.09 97.07 10/18/2020 14:35:24 -73.09, 134.11 97.06 2.00 33
19 10/18/2020 15:25:36 73.05, -58.56 82.93 10/18/2020 15:26:03 73.07, -58.58 82.95 2.50 27
20 10/18/2020 16:16:20 -73.07, 108.72 97.05 10/18/2020 16:16:46 -73.07, 108.73 97.05 0.42 26
21 10/18/2020 17:07:05 73.05, -83.92 82.95 10/18/2020 17:07:25 73.05, -83.96 82.96 1.34 20
22 10/18/2020 17:57:49 -73.07, 83.35 97.02 10/18/2020 17:58:08 -73.05, 83.35 97.04 1.72 19
23 10/18/2020 18:48:34 73.05,-109.29 82.98 10/18/2020 18:48:47 73.04,-109.34 82.96 2.03 13
24 10/18/2020 19:39:18 -73.07, 57.99 97.00 10/18/2020 19:39:30 -73.03, 57.98 97.03 3.51 12
25 10/18/2020 20:30:03 73.05,-134.66 83.00 10/18/2020 20:30:08 73.07,-134.61 83.02 3.01 5
26 10/18/2020 21:20:47 -73.06, 32.62 96.98 10/18/2020 21:20:51 -73.07, 32.71 96.97 2.82 4
27 10/18/2020 22:11:32 73.04,-160.03 83.02 10/18/2020 22:11:30 73.05,-159.99 83.03 1.42 2
28 10/18/2020 23:02:16 -73.06, 7.25 96.95 10/18/2020 23:02:13 -73.05, 7.33 96.97 2.82 3
29 10/18/2020 23:53:01 73.04, 174.61 83.05 10/18/2020 23:52:52 73.03, 174.63 83.04 1.32 9
30 10/19/2020 00:43:44 -73.01, -18.00 96.98 10/19/2020 00:43:35 -73.03, -18.05 96.96 2.78 9
31 10/19/2020 01:34:30 73.04, 149.24 83.07 10/19/2020 01:34:14 73.02, 149.25 83.04 2.87 16
32 10/19/2020 02:25:13 -73.01, -43.37 96.96 10/19/2020 02:24:57 -73.01, -43.43 96.95 1.94 16
33 10/19/2020 03:15:58 72.99, 123.98 83.04 10/19/2020 03:15:36 73.00, 123.88 83.05 3.59 22
34 10/19/2020 04:06:42 -73.01, -68.74 96.93 10/19/2020 04:06:19 -73.00, -68.81 96.94 2.53 23
35 10/19/2020 04:57:28 73.04, 98.51 83.12 10/19/2020 04:56:57 73.03, 98.61 83.11 3.34 31
36 10/19/2020 05:48:11 -73.00, -94.10 96.91 10/19/2020 05:47:40 -73.03, -94.08 96.89 2.77 31
37 10/19/2020 06:38:56 72.99, 73.25 83.09 10/19/2020 06:38:19 73.01, 73.23 83.12 3.05 37
38 10/19/2020 07:29:40 -73.00,-119.47 96.89 10/19/2020 07:29:02 -73.01,-119.45 96.88 1.00 38
39 10/19/2020 08:20:25 72.98, 47.88 83.11 10/19/2020 08:19:41 72.99, 47.85 83.13 1.56 44
40 10/19/2020 09:11:09 -73.00,-144.84 96.86 10/19/2020 09:10:24 -72.99,-144.83 96.87 0.95 45
41 10/19/2020 10:01:54 72.98, 22.51 83.13 10/19/2020 10:01:03 72.98, 22.47 83.13 1.53 51
42 10/19/2020 10:52:38 -73.00,-170.20 96.84 10/19/2020 10:51:46 -72.97,-170.21 96.86 2.72 52
43 10/19/2020 11:43:23 72.98, -2.85 83.16 10/19/2020 11:42:25 72.96, -2.91 83.14 3.00 58
44 10/19/2020 12:34:07 -73.00, 164.43 96.82 10/19/2020 12:33:07 -73.01, 164.52 96.80 3.14 60
45 10/19/2020 13:24:52 72.98, -28.22 83.18 10/19/2020 13:23:46 72.99, -28.18 83.20 1.97 66
46 10/19/2020 14:15:36 -73.00, 139.06 96.79 10/19/2020 14:14:29 -72.99, 139.14 96.80 2.65 67
47 10/19/2020 15:06:21 72.98, -53.59 83.21 10/19/2020 15:05:08 72.97, -53.55 83.21 1.12 73
48 10/19/2020 15:57:05 -72.99, 113.70 96.77 10/19/2020 15:55:51 -72.97, 113.76 96.79 3.29 74
49 10/19/2020 16:47:46 72.77, -78.52 83.02 10/19/2020 16:46:34 72.75, -79.36 83.02 27.59 72
50 10/19/2020 17:38:29 -72.74, 88.86 97.01 10/19/2020 17:37:17 -72.75, 87.96 96.98 29.76 72
51 10/19/2020 18:29:10 72.52,-103.37 82.78 10/19/2020 18:28:00 72.53,-105.15 82.83 59.59 70
52 10/19/2020 19:19:53 -72.49, 64.01 97.24 10/19/2020 19:18:44 -72.48, 62.07 97.21 65.19 69
